When you browse on this site, cookies collect data to enhance your experience and personalize the content and advertising you see.
Visit our Privacy Policy to learn more. By continuing to use the site, you agree to this use of cookies and data.
  • In Austria
  • List of Countries
  • For 7 days
  • Water Temperature
  • Satellite Maps
  • Weather Map
  • News
  • Weather Widgets
  • user-avatar
    Login

    Hourly Weather Yurenki

    Today, 21 November, Wednesday

    Time Temperature Precipitation Wind Pressure Humidity
    00:00 -5°C° 0 mm 2 mps 764 mmHg 91%
    01:00 -5°C° 0 mm 2 mps 764 mmHg 93%
    02:00 -2°C° 0 mm 1 mps 764 mmHg 95%
    03:00 -2°C° 0 mm 1 mps 764 mmHg 94%
    04:00 -2°C° 0 mm 1 mps 764 mmHg 94%
    05:00 -2°C° 0 mm 1 mps 764 mmHg 94%
    06:00 -2°C° 0 mm 1 mps 764 mmHg 95%
    07:00 -2°C° 0 mm 1 mps 764 mmHg 95%
    08:00 -4°C° 0 mm 2 mps 765 mmHg 95%
    09:00 -3°C° 0 mm 2 mps 765 mmHg 93%
    10:00 -3°C° 0 mm 2 mps 765 mmHg 91%
    11:00 -2°C° 0 mm 2 mps 765 mmHg 88%
    12:00 -2°C° 0 mm 2 mps 765 mmHg 88%
    13:00 -2°C° 0 mm 2 mps 765 mmHg 87%
    14:00 0°C° 0 mm 1 mps 765 mmHg 86%
    15:00 -2°C° 0 mm 2 mps 765 mmHg 88%
    16:00 -3°C° 0 mm 2 mps 764 mmHg 90%
    17:00 -3°C° 0 mm 2 mps 764 mmHg 92%
    18:00 -3°C° 0 mm 2 mps 764 mmHg 93%
    19:00 -4°C° 0 mm 2 mps 764 mmHg 94%
    20:00 -4°C° 0 mm 2 mps 764 mmHg 94%
    21:00 -5°C° 0 mm 2 mps 763 mmHg 95%
    22:00 -5°C° 0 mm 2 mps 763 mmHg 95%
    23:00 -5°C° 0 mm 2 mps 763 mmHg 95%

    Tomorrow, 22 November, Thursday

    Time Temperature Precipitation Wind Pressure Humidity
    00:00 -5°C° 0 mm 2 mps 763 mmHg 95%
    01:00 -5°C° 0 mm 2 mps 762 mmHg 95%
    02:00 -5°C° 0 mm 2 mps 762 mmHg 94%
    03:00 -6°C° 0 mm 3 mps 762 mmHg 94%
    04:00 -5°C° 0 mm 3 mps 761 mmHg 94%
    05:00 -5°C° 0 mm 3 mps 761 mmHg 94%
    06:00 -5°C° 0 mm 3 mps 760 mmHg 92%
    07:00 -5°C° 0 mm 4 mps 760 mmHg 91%
    08:00 -5°C° 0 mm 4 mps 759 mmHg 90%
    09:00 -4°C° 0 mm 4 mps 759 mmHg 88%
    10:00 -3°C° 0 mm 4 mps 759 mmHg 86%
    11:00 -3°C° 0 mm 4 mps 759 mmHg 83%
    12:00 -2°C° 0 mm 4 mps 758 mmHg 83%
    13:00 -2°C° 0 mm 4 mps 758 mmHg 83%
    14:00 -1°C° 0 mm 4 mps 758 mmHg 83%
    15:00 -1°C° 0 mm 4 mps 758 mmHg 84%
    16:00 -1°C° 0 mm 4 mps 758 mmHg 86%
    17:00 -1°C° 0 mm 4 mps 758 mmHg 87%
    18:00 -1°C° 0 mm 4 mps 758 mmHg 88%
    19:00 -1°C° 0 mm 4 mps 758 mmHg 89%
    20:00 0°C° 0 mm 3 mps 759 mmHg 90%
    21:00 0°C° 0 mm 3 mps 759 mmHg 91%
    22:00 0°C° 0 mm 3 mps 759 mmHg 92%
    23:00 0°C° 0 mm 3 mps 759 mmHg 93%

    Day after tomorrow, 23 November, Friday

    Time Temperature Precipitation Wind Pressure Humidity
    00:00 -1°C° 0 mm 2 mps 760 mmHg 94%
    01:00 -1°C° 0 mm 2 mps 760 mmHg 95%
    02:00 -2°C° 0 mm 2 mps 761 mmHg 96%
    03:00 -2°C° 0 mm 2 mps 761 mmHg 96%
    04:00 0°C° 0 mm 1 mps 761 mmHg 96%
    05:00 -1°C° 0 mm 1 mps 761 mmHg 97%
    06:00 -1°C° 0 mm 1 mps 762 mmHg 96%
    07:00 -1°C° 0 mm 1 mps 762 mmHg 96%
    08:00 -1°C° 0 mm 1 mps 762 mmHg 96%
    09:00 0°C° 0 mm 1 mps 762 mmHg 94%
    10:00 +1°C° 0 mm 1 mps 762 mmHg 92%
    11:00 -1°C° 0 mm 2 mps 762 mmHg 91%
    12:00 -1°C° 0 mm 2 mps 762 mmHg 89%
    13:00 +1°C° 0 mm 2 mps 762 mmHg 88%
    14:00 +1°C° 0 mm 2 mps 762 mmHg 86%
    15:00 +1°C° 0 mm 2 mps 761 mmHg 87%
    16:00 0°C° 0 mm 3 mps 761 mmHg 88%
    17:00 -1°C° 0 mm 3 mps 761 mmHg 89%
    18:00 -1°C° 0 mm 3 mps 761 mmHg 88%
    19:00 -1°C° 0 mm 3 mps 760 mmHg 88%
    20:00 -2°C° 0 mm 4 mps 760 mmHg 87%
    21:00 -2°C° 0 mm 4 mps 759 mmHg 86%
    22:00 -2°C° 0 mm 4 mps 759 mmHg 85%
    23:00 -2°C° 0 mm 4 mps 758 mmHg 84%

    24 November, Saturday

    Time Temperature Precipitation Wind Pressure Humidity
    00:00 -3°C° 0 mm 4 mps 758 mmHg 84%
    01:00 -3°C° 0 mm 4 mps 757 mmHg 84%
    02:00 -3°C° 0 mm 4 mps 757 mmHg 84%
    03:00 -3°C° 0 mm 4 mps 757 mmHg 84%
    04:00 -3°C° 0 mm 4 mps 756 mmHg 85%
    05:00 -3°C° 0 mm 4 mps 755 mmHg 86%
    06:00 -4°C° 0 mm 4 mps 755 mmHg 86%
    07:00 -4°C° 0 mm 4 mps 754 mmHg 86%
    08:00 -5°C° 0 mm 3 mps 754 mmHg 87%
    09:00 -4°C° 0 mm 3 mps 753 mmHg 86%
    10:00 -4°C° 0 mm 3 mps 753 mmHg 85%
    11:00 -4°C° 0 mm 3 mps 753 mmHg 84%
    12:00 -4°C° 0.2 mm 3 mps 752 mmHg 86%
    13:00 -4°C° 0.2 mm 3 mps 752 mmHg 87%
    14:00 -4°C° 0.2 mm 3 mps 751 mmHg 89%
    15:00 -2°C° 0.2 mm 3 mps 751 mmHg 90%
    16:00 -2°C° 0.2 mm 3 mps 751 mmHg 90%
    17:00 -2°C° 0.2 mm 3 mps 751 mmHg 90%
    18:00 -2°C° 0.1 mm 3 mps 751 mmHg 90%
    19:00 -2°C° 0.1 mm 3 mps 751 mmHg 91%
    20:00 -2°C° 0.1 mm 3 mps 751 mmHg 91%
    21:00 -2°C° 0.1 mm 2 mps 751 mmHg 92%
    22:00 -2°C° 0.1 mm 2 mps 752 mmHg 93%
    23:00 -2°C° 0.1 mm 2 mps 752 mmHg 94%

    25 November, Sunday

    Time Temperature Precipitation Wind Pressure Humidity
    00:00 -1°C° 0 mm 1 mps 753 mmHg 95%
    01:00 -1°C° 0 mm 1 mps 753 mmHg 95%
    02:00 -1°C° 0 mm 1 mps 753 mmHg 96%
    03:00 -2°C° 0 mm 1 mps 753 mmHg 95%
    04:00 -2°C° 0 mm 1 mps 753 mmHg 95%
    05:00 -3°C° 0 mm 1 mps 753 mmHg 94%
    06:00 -3°C° 0 mm 1 mps 753 mmHg 94%
    07:00 -3°C° 0 mm 1 mps 754 mmHg 94%
    08:00 -3°C° 0 mm 1 mps 754 mmHg 93%
    09:00 -3°C° 0 mm 1 mps 754 mmHg 90%
    10:00 -2°C° 0 mm 1 mps 754 mmHg 87%
    11:00 -1°C° 0 mm 1 mps 754 mmHg 84%
    12:00 -1°C° 0 mm 1 mps 754 mmHg 85%
    13:00 -1°C° 0 mm 1 mps 754 mmHg 85%
    14:00 -1°C° 0 mm 1 mps 754 mmHg 86%
    15:00 -1°C° 0 mm 1 mps 753 mmHg 89%
    16:00 -2°C° 0 mm 1 mps 753 mmHg 91%
    17:00 -3°C° 0 mm 1 mps 753 mmHg 94%
    18:00 -3°C° 0 mm 1 mps 753 mmHg 94%
    19:00 -3°C° 0 mm 1 mps 753 mmHg 95%
    20:00 -3°C° 0 mm 1 mps 753 mmHg 95%
    21:00 -3°C° 0 mm 1 mps 753 mmHg 95%
    22:00 -3°C° 0 mm 1 mps 753 mmHg 95%
    23:00 -3°C° 0 mm 1 mps 753 mmHg 95%

    26 November, Monday

    Time Temperature Precipitation Wind Pressure Humidity
    00:00 -3°C° 0 mm 1 mps 753 mmHg 94%
    01:00 -4°C° 0 mm 1 mps 753 mmHg 93%
    02:00 -4°C° 0 mm 1 mps 753 mmHg 92%
    03:00 -6°C° 0 mm 2 mps 753 mmHg 92%
    04:00 -7°C° 0 mm 2 mps 753 mmHg 93%
    05:00 -7°C° 0 mm 2 mps 753 mmHg 93%
    06:00 -7°C° 0 mm 2 mps 753 mmHg 93%
    07:00 -6°C° 0 mm 1 mps 753 mmHg 94%
    08:00 -6°C° 0 mm 1 mps 753 mmHg 94%
    09:00 -7°C° 0 mm 2 mps 753 mmHg 91%
    10:00 -6°C° 0 mm 2 mps 753 mmHg 89%
    11:00 -5°C° 0 mm 2 mps 754 mmHg 86%
    12:00 -5°C° 0 mm 2 mps 754 mmHg 85%
    13:00 -4°C° 0 mm 2 mps 754 mmHg 85%
    14:00 -4°C° 0 mm 2 mps 754 mmHg 84%
    15:00 -4°C° 0 mm 2 mps 754 mmHg 86%
    16:00 -5°C° 0 mm 2 mps 755 mmHg 87%
    17:00 -5°C° 0 mm 2 mps 755 mmHg 89%
    18:00 -6°C° 0 mm 2 mps 755 mmHg 90%
    19:00 -4°C° 0 mm 1 mps 755 mmHg 92%
    20:00 -6°C° 0 mm 1 mps 756 mmHg 94%
    21:00 -6°C° 0 mm 1 mps 756 mmHg 94%
    22:00 -6°C° 0 mm 1 mps 756 mmHg 94%
    23:00 -6°C° 0 mm 1 mps 757 mmHg 94%
    Show more